Weather History for Crystal River, FL

Change the Weather History Date:

Tuesday, January 1, 2013

  Actual Average (KBKV) Record (KBKV)
Temperature  
Mean Temperature 60 °F -  
Max Temperature 77 °F 67 °F 81 °F (2006)
Min Temperature 44 °F 42 °F 21 °F (2001)
Degree Days  
Heating Degree Days 4    
Growing Degree Days 10 (Base 50)    
Moisture  
Dew Point 54 °F    
Average Humidity 80    
Maximum Humidity 100    
Minimum Humidity 50    
Precipitation  
Precipitation 0.00 in - - ()
Sea Level Pressure  
Sea Level Pressure 30.12 in    
Wind  
Wind Speed 2 mph (SW)    
Max Wind Speed 9 mph    
Max Gust Speed 17 mph    
Visibility 9 miles    
Events      
Averages and records for this station are not official NWS values.
T = Trace of Precipitation, MM = Missing Value Source: NWS Daily Summary

Daily Weather History Graph

Daily Weather History Graph

Search for Another Location

Airport:

Trip Planner

Search our weather history database for the weather conditions in past years. The results will help you decide how hot, cold, wet, or windy it might be!

Date:

Astronomy

Jan. 01, 2013 Rise Set
Actual Time 7:23 AM EST 5:44 PM EST
Civil Twilight 6:57 AM EST 6:10 PM EST
Nautical Twilight 6:28 AM EST 6:39 PM EST
Astronomical Twilight 5:59 AM EST 7:08 PM EST
Moon 9:51 PM EST 9:55 AM EST
Length of Visible Light 11h 12m
Length of Day
10h 20m
Waning Gibbous, 83% of the Moon is Illuminated
Jan 1
Waning Gibbous
Jan 4
Last Quarter
Jan 11
New
Jan 18
First Quarter
Jan 26
Full

Hourly Weather History & Observations

Time (EST) Temp. Dew Point Humidity Pressure Visibility Wind Dir Wind Speed Gust Speed Precip Events Conditions
12:15 AM 46.4 °F 46.4 °F 100% 30.24 in 10.0 mi Calm Calm - N/A   Clear
12:35 AM 46.4 °F 44.6 °F 93% 30.23 in 10.0 mi Calm Calm - N/A   Clear
1:15 AM 44.6 °F 44.6 °F 100% 30.21 in 7.0 mi Calm Calm - N/A   Clear
1:35 AM 44.6 °F 44.6 °F 100% 30.20 in 3.0 mi Calm Calm - N/A   Clear
2:15 AM 44.6 °F 44.6 °F 100% 30.20 in 3.0 mi Calm Calm - N/A   Clear
2:35 AM 44.6 °F 44.6 °F 100% 30.19 in 5.0 mi Calm Calm - N/A   Mostly Cloudy
2:55 AM 46.4 °F 46.4 °F 100% 30.18 in 7.0 mi Calm Calm - N/A   Overcast
3:15 AM 48.2 °F 46.4 °F 93% 30.18 in 7.0 mi Calm Calm - N/A   Overcast
3:35 AM 50.0 °F 48.2 °F 94% 30.17 in 7.0 mi Calm Calm - N/A   Overcast
3:55 AM 50.0 °F 50.0 °F 100% 30.17 in 7.0 mi Calm Calm - N/A   Overcast
4:15 AM 50.0 °F 50.0 °F 100% 30.16 in 7.0 mi Calm Calm - N/A   Overcast
4:35 AM 51.8 °F 50.0 °F 94% 30.16 in 7.0 mi Calm Calm - N/A   Overcast
5:15 AM 51.8 °F 51.8 °F 100% 30.15 in 7.0 mi Calm Calm - N/A   Overcast
5:35 AM 53.6 °F 51.8 °F 94% 30.15 in 10.0 mi Calm Calm - N/A   Overcast
5:55 AM 53.6 °F 51.8 °F 94% 30.15 in 10.0 mi Calm Calm - N/A   Overcast
6:15 AM 53.6 °F 51.8 °F 94% 30.15 in 7.0 mi Calm Calm - N/A   Overcast
6:35 AM 51.8 °F 51.8 °F 100% 30.16 in 10.0 mi West 3.5 mph - N/A   Overcast
6:55 AM 53.6 °F 51.8 °F 94% 30.16 in 7.0 mi Calm Calm - N/A   Overcast
7:15 AM 51.8 °F 51.8 °F 100% 30.16 in 7.0 mi Calm Calm - N/A   Overcast
7:35 AM 53.6 °F 51.8 °F 94% 30.17 in 7.0 mi Calm Calm - N/A   Overcast
7:55 AM 55.4 °F 53.6 °F 94% 30.17 in 7.0 mi Calm Calm - N/A   Overcast
8:15 AM 55.4 °F 53.6 °F 94% 30.17 in 10.0 mi Calm Calm - N/A   Mostly Cloudy
8:35 AM 57.2 °F 55.4 °F 94% 30.17 in 10.0 mi Calm Calm - N/A   Scattered Clouds
8:55 AM 60.8 °F 55.4 °F 82% 30.17 in 10.0 mi Calm Calm - N/A   Clear
9:15 AM 62.6 °F 55.4 °F 77% 30.17 in 10.0 mi South 3.5 mph - N/A   Clear
9:35 AM 64.4 °F 55.4 °F 73% 30.17 in 10.0 mi South 3.5 mph - N/A   Mostly Cloudy
10:15 AM 68.0 °F 55.4 °F 64% 30.17 in 10.0 mi South 5.8 mph - N/A   Scattered Clouds
10:35 AM 69.8 °F 57.2 °F 64% 30.17 in 10.0 mi SSE 5.8 mph - N/A   Clear
10:55 AM 71.6 °F 57.2 °F 60% 30.16 in 10.0 mi South 6.9 mph - N/A   Clear
11:15 AM 71.6 °F 55.4 °F 57% 30.15 in 10.0 mi SSW 6.9 mph - N/A   Clear
11:35 AM 73.4 °F 55.4 °F 53% 30.14 in 10.0 mi South 5.8 mph - N/A   Scattered Clouds
12:15 PM 75.2 °F 57.2 °F 53% 30.12 in 10.0 mi SSW 5.8 mph - N/A   Mostly Cloudy
12:35 PM 75.2 °F 57.2 °F 53% 30.11 in 10.0 mi SSW 4.6 mph 17.3 mph N/A   Overcast
12:55 PM 77.0 °F 57.2 °F 50% 30.11 in 10.0 mi SW 8.1 mph - N/A   Scattered Clouds
1:15 PM 75.2 °F 55.4 °F 50% 30.09 in 10.0 mi South 9.2 mph - N/A   Scattered Clouds
1:35 PM 75.2 °F 57.2 °F 53% 30.08 in 10.0 mi SW 5.8 mph - N/A   Clear
1:55 PM 75.2 °F 57.2 °F 53% 30.09 in 10.0 mi SW 5.8 mph - N/A   Clear
2:15 PM 75.2 °F 57.2 °F 53% 30.08 in 10.0 mi SW 5.8 mph - N/A   Clear
2:35 PM 75.2 °F 57.2 °F 53% 30.07 in 10.0 mi WSW 5.8 mph - N/A   Mostly Cloudy
2:55 PM 77.0 °F 57.2 °F 50% 30.07 in 10.0 mi WSW 6.9 mph - N/A   Overcast
3:15 PM 73.4 °F 57.2 °F 57% 30.07 in 10.0 mi WSW 9.2 mph - N/A   Mostly Cloudy
3:35 PM 71.6 °F 57.2 °F 60% 30.07 in 10.0 mi WSW 9.2 mph - N/A   Overcast
3:55 PM 71.6 °F 57.2 °F 60% 30.08 in 10.0 mi WSW 6.9 mph - N/A   Overcast
4:15 PM 71.6 °F 57.2 °F 60% 30.08 in 10.0 mi WSW 8.1 mph - N/A   Overcast
4:35 PM 71.6 °F 57.2 °F 60% 30.08 in 10.0 mi WSW 4.6 mph - N/A   Overcast
5:15 PM 69.8 °F 57.2 °F 64% 30.07 in 10.0 mi WSW 4.6 mph - N/A   Mostly Cloudy
5:35 PM 69.8 °F 57.2 °F 64% 30.07 in 10.0 mi SW 3.5 mph - N/A   Overcast
5:55 PM 68.0 °F 57.2 °F 68% 30.08 in 10.0 mi Calm Calm - N/A   Overcast
6:15 PM 68.0 °F 57.2 °F 68% 30.07 in 10.0 mi Calm Calm - N/A   Overcast
6:35 PM 68.0 °F 57.2 °F 68% 30.07 in 10.0 mi Calm Calm - N/A   Overcast
6:55 PM 64.4 °F 57.2 °F 77% 30.07 in 10.0 mi Calm Calm - N/A   Mostly Cloudy
7:15 PM 64.4 °F 57.2 °F 77% 30.06 in 10.0 mi Calm Calm - N/A   Scattered Clouds
7:35 PM 62.6 °F 55.4 °F 77% 30.06 in 10.0 mi Calm Calm - N/A   Clear
7:55 PM 60.8 °F 55.4 °F 82% 30.06 in 10.0 mi Calm Calm - N/A   Clear
8:15 PM 59.0 °F 55.4 °F 88% 30.07 in 10.0 mi Calm Calm - N/A   Clear
8:35 PM 59.0 °F 55.4 °F 88% 30.07 in 10.0 mi Calm Calm - N/A   Clear
8:55 PM 57.2 °F 53.6 °F 88% 30.07 in 10.0 mi Calm Calm - N/A   Clear
9:15 PM 55.4 °F 53.6 °F 94% 30.07 in 10.0 mi Calm Calm - N/A   Clear
9:35 PM 55.4 °F 53.6 °F 94% 30.07 in 10.0 mi Calm Calm - N/A   Clear
9:55 PM 55.4 °F 53.6 °F 94% 30.07 in 10.0 mi Calm Calm - N/A   Clear
10:15 PM 55.4 °F 53.6 °F 94% 30.06 in 10.0 mi Calm Calm - N/A   Clear
10:35 PM 53.6 °F 53.6 °F 100% 30.06 in 10.0 mi Calm Calm - N/A   Clear
10:55 PM 53.6 °F 51.8 °F 94% 30.06 in 10.0 mi Calm Calm - N/A   Clear
11:15 PM 53.6 °F 51.8 °F 94% 30.06 in 10.0 mi Calm Calm - N/A   Clear
11:35 PM 53.6 °F 51.8 °F 94% 30.05 in 10.0 mi Calm Calm - N/A   Clear
11:55 PM 53.6 °F 51.8 °F 94% 30.05 in 10.0 mi Calm Calm - N/A   Clear